{"data":{"norad_id":52454,"intl_designator":"2022-049D","name":"STARLINK-3888","alt_names":[],"object_type":"PAYLOAD","status":"ACTIVE","operator":null,"country":"US","launch_date":"2022-05-06","launch_site_code":"AFETR","launch_vehicle":null,"mission":null,"orbit_class":"UNKNOWN","rcs_meters":null,"size_class":null,"mass_kg":null,"dimensions":null,"purposes":["comms"],"wikipedia_slug":null,"has_3d_model":false,"image_url":null,"decayed_at":null,"tle_current":{"epoch":"2026-05-25T03:34:58.941120Z","epoch_age_seconds":56063,"freshness":"FRESH","line1":"1 52454U 22049D   26145.14929330 -.00000924  00000+0 -39955-4 0  9997","line2":"2 52454  53.2148  85.8773 0001741  61.7331 298.3837 15.08831629223658","mean_motion":15.08831629,"eccentricity":0.0001741,"inclination_deg":53.2148,"raan_deg":85.8773,"arg_perigee_deg":61.7331,"mean_anomaly_deg":298.3837,"bstar":-3.9955e-5,"rev_number":22365,"period_min":95.438084165453,"perigee_km":538.56456845013,"apogee_km":540.97338331093,"semimajor_km":6917.9059758805,"source":"CELESTRAK","updated_at":"2026-05-25T13:38:17.124432Z"}}}